"2014-10-15 00:01:00",1368529,-1.315402,-0.9016369,-26.79428,16.09013,-17.34906,16.16226,0.5350773,-0.2077478,-15.78205,14.28875,0,0.004,7999,0,0,0,14.13839,13.26421,12.11988,13.43567,13.65349,14.03687,14.63635,14.74019,13.92755,12.77969,"NAN","NAN",14.46306,-5.957232,-3.677927,-2.83495,-3.958198,0.3906994,37.01443,37.65417,37.61348,38.86809,37.17267,37.24501,38.06107,38.66464,37.57505,0.6595569,0.6889644,0.6870769,0.746341,0.6667774,0.67009,0.7079669,0.7365809,0.6852963,1.000191,14.43187,13.19507,370.1,379.9,371.3,-9.04,12.95
"2014-10-15 00:02:00",1368530,-1.303995,-0.8777404,-27.1942,16.08685,-17.79678,16.14915,0.5350773,-0.2492974,-15.89398,14.29858,0,0.004,7999,0,0,0,14.16131,13.2706,12.14656,13.43567,13.64455,14.03687,14.63635,14.73365,13.92755,12.77969,"NAN","NAN",14.45326,-5.964165,-3.685561,-2.833288,-3.962421,0.3906219,37.01669,37.64965,37.61122,38.87714,37.15911,37.26083,38.06559,38.65786,37.56149,0.6596598,0.6887546,0.6869721,0.7467763,0.6661572,0.6708157,0.7081793,0.7362571,0.6846684,1.000229,14.4394,13.20891,369.7,379.4,371.2,-8.59,12.85
"2014-10-15 00:03:00",1368531,-1.303995,-0.9075955,-27.82263,16.09013,-17.34906,16.15243,0.5350773,-0.1246487,-16.78941,14.28875,0,0.004,7999,0,0,0,13.88634,13.24126,12.14625,13.43567,13.638,14.03687,14.64329,14.75482,13.92755,12.77969,"NAN","NAN",14.44673,-5.972046,-3.694093,-2.832479,-3.964138,0.3903122,37.02121,37.66774,37.618,38.88166,37.16363,37.25179,38.07011,38.6556,37.56375,0.6598657,0.6895943,0.6872864,0.746994,0.666364,0.6704015,0.7083918,0.7361485,0.684773,1.000242,14.4394,13.18868,369,379.9,370.3,-9.97,12.94
"2014-10-15 00:04:00",1368532,-1.321103,-0.901642,-28.96525,16.09013,-17.57292,16.15898,0.5350773,-0.1246487,-17.40502,14.28548,0,0.004,7999,0,0,0,13.79796,13.24782,12.13658,13.43567,13.64976,14.03687,14.63982,14.74019,13.92755,12.77969,"NAN","NAN",14.45326,-5.980004,-3.70182,-2.832525,-3.971018,0.3901572,37.02348,37.65191,37.61122,38.87262,37.16363,37.24727,38.06107,38.66464,37.55923,0.6599686,0.6888595,0.686972,0.7465586,0.666364,0.6701936,0.7079669,0.7365809,0.6845638,1.000204,14.4394,13.16482,367.9,379.7,369.7,-10.44,12.9
"2014-10-15 00:05:00",1368533,-1.389436,-0.9135843,-27.9369,16.04097,-16.73345,16.13605,0.6242568,-0.04154957,-16.11784,14.23958,0,0.004,7999,0,0,0,13.98782,13.21502,12.16327,13.43567,13.64993,14.02704,14.63635,14.74058,13.92755,12.77626,"NAN","NAN",14.44346,-5.993107,-3.706932,-2.831707,-3.973574,0.3902347,37.02121,37.65643,37.61348,38.87487,37.15911,37.25179,38.06559,38.6669,37.56827,0.6598656,0.6890693,0.6870769,0.7466674,0.6661572,0.6704009,0.7081795,0.7366893,0.6849822,1.000229,14.4281,13.22647,368.7,380.4,370.7,-10.17,13.04
"2014-10-15 00:06:00",1368534,-1.497623,-0.9314935,-27.65125,15.92295,-16.56555,16.05737,0.7134364,-0.04154957,-15.72608,14.16419,0,0.004,7999,0,0,0,14.08275,13.26077,12.14282,13.4324,13.64712,14.03359,14.64619,14.73038,13.92755,12.77969,"NAN","NAN",14.44019,-6.007921,-3.712873,-2.831691,-3.979514,0.3902346,37.02121,37.65417,37.61348,38.85453,37.16363,37.25179,38.07238,38.65786,37.56827,0.6598656,0.6889644,0.6870769,0.7456898,0.666364,0.6704009,0.7084982,0.736257,0.6849822,1.000178,14.43187,13.20811,368.3,380.1,370.7,-10.01,12.99
"2014-10-15 00:07:00",1368535,-1.634281,-0.9314894,-27.47985,15.90984,-16.67748,16.04755,0.5796671,-0.2492974,-14.49486,14.10191,0,0.004,7999,0,0,0,13.96162,13.23798,12.15312,13.43567,13.6404,14.03359,14.63982,14.72691,13.931,12.77642,"NAN","NAN",14.44018,-6.024499,-3.721382,-2.831682,-3.982058,0.3904669,37.02348,37.65191,37.61348,38.87487,37.16363,37.24501,38.06559,38.6669,37.56375,0.6599686,0.6888595,0.6870768,0.7466673,0.6663641,0.67009,0.7081794,0.7366893,0.684773,1.000216,14.42057,13.19893,368.4,380,371.6,-9.09,12.96
"2014-10-15 00:08:00",1368536,-1.719697,-0.9494026,-25.93732,15.89345,-16.67748,15.98196,0.5350773,-0.4570453,-13.76732,14.06914,0,0.004,7999,0,0,0,13.75887,13.20519,12.15264,13.42586,13.64057,14.02049,14.65294,14.73038,13.92755,12.76661,"NAN","NAN",14.44019,-6.041974,-3.726497,-2.831684,-3.987172,0.3908542,37.01896,37.65643,37.61348,38.87262,37.16137,37.24953,38.07011,38.66012,37.56375,0.6597627,0.6890693,0.6870769,0.7465587,0.6662605,0.6702972,0.7083919,0.7363648,0.684773,1.000216,14.42057,13.18974,369.9,379.6,372.1,-8.24,12.89
"2014-10-15 00:09:00",1368537,-1.793732,-0.9494071,-26.16585,15.91968,-16.84538,15.98524,0.8026159,-0.290847,-13.76732,14.03638,0,0.004,7999,0,0,0,13.67359,13.11337,12.15936,13.41604,13.62731,14.02049,14.6595,14.74386,13.931,12.75681,"NAN","NAN",14.4369,-6.063835,-3.734179,-2.831696,-3.9923,0.3900797,37.01896,37.65869,37.6067,38.87262,37.15911,37.25179,38.06107,38.68047,37.56149,0.6597627,0.6891742,0.6867624,0.7465589,0.6661572,0.6704009,0.7079669,0.7373381,0.6846685,1.000166,14.42057,13.19254,369.8,379.4,371.9,-8.34,12.86
"2014-10-15 00:10:00",1368538,-1.816509,-0.9852338,-25.59454,15.97868,-17.1252,16.05083,0.6688466,-0.2492974,-13.37557,14.04948,0,0.004,7999,0,0,0,13.62777,13.10025,12.13954,13.42258,13.63263,14.01721,14.65604,14.73384,13.931,12.76007,"NAN","NAN",14.44347,-6.090914,-3.738439,-2.831696,-3.995708,0.3900023,37.01896,37.65869,37.618,38.86809,37.16137,37.24953,38.06333,38.64882,37.56601,0.6597627,0.6891742,0.6872864,0.7463413,0.6662605,0.6702974,0.7080731,0.7358253,0.6848777,1.000191,14.42057,13.22291,370.7,379.5,372.4,-7.948,12.88
"2014-10-15 00:11:00",1368539,-1.793723,-0.9673157,-24.79471,16.04755,-17.2931,16.09672,0.6688466,-0.290847,-13.09574,14.08552,0,0.004,7999,0,0,0,13.68341,13.10681,12.14297,13.39967,13.64952,14.01721,14.65294,14.74731,13.92755,12.75681,"NAN","NAN",14.43036,-6.117079,-3.746935,-2.831677,-4.002498,0.3900797,37.02348,37.66321,37.61122,38.87262,37.16363,37.24727,38.06333,38.66238,37.56375,0.6599686,0.6893842,0.6869721,0.7465587,0.666364,0.6701937,0.7080731,0.7364735,0.684773,1.000166,14.41229,13.25239,371.8,379.6,372.9,-7.554,12.89
"2014-10-15 00:12:00",1368540,-1.719688,-0.9374559,-24.68045,16.05083,-17.57292,16.12622,0.5796671,-0.4985949,-13.09574,14.09535,0,0.004,7999,0,0,0,13.66049,13.11993,12.14968,13.41603,13.64969,14.01721,14.65313,14.74057,13.92755,12.75681,"NAN","NAN",14.43692,-6.148506,-3.755442,-2.831668,-4.004189,0.3901571,37.01896,37.65417,37.61122,38.86809,37.15232,37.24953,38.06559,38.65786,37.56827,0.6597627,0.6889644,0.686972,0.746341,0.6658472,0.6702976,0.7081793,0.7362565,0.6849823,1.000191,14.39572,13.21559,372,379.5,372.9,-7.339,12.87
"2014-10-15 00:13:00",1368541,-1.61719,-0.9076006,-24.90897,16.06064,-17.68485,16.1295,0.7134364,-0.4985949,-13.43153,14.1478,0,0.004,7999,0,0,0,13.57538,13.18551,12.13658,13.41604,13.6535,14.02067,14.64657,14.74077,13.92755,12.75681,"NAN","NAN",14.43036,-6.176449,-3.763105,-2.831665,-4.012704,0.390312,37.02574,37.66547,37.61348,38.87714,37.16815,37.24049,38.06559,38.6556,37.56827,0.6600717,0.6894893,0.6870768,0.7467764,0.666571,0.6698828,0.7081793,0.7361487,0.6849823,1.000216,14.39572,13.23216,371.8,379.4,372.9,-7.226,12.85
"2014-10-15 00:14:00",1368542,-1.514681,-0.8956518,-25.30889,16.07701,-17.74081,16.13605,0.8026159,-0.4985949,-13.87925,14.17403,0,0.004,7999,0,0,0,13.68996,13.17223,12.15327,13.40949,13.6321,14.02049,14.64966,14.73384,13.92428,12.75681,"NAN","NAN",14.43036,-6.205236,-3.768194,-2.831647,-4.016087,0.390312,37.03252,37.65643,37.618,38.87487,37.16589,37.25857,38.06333,38.6782,37.56601,0.6603806,0.6890693,0.6872864,0.7466673,0.6664674,0.670712,0.7080731,0.7372301,0.6848776,1.000166,14.39572,13.20274,371.5,379.4,372.6,-7.422,12.85
"2014-10-15 00:15:00",1368543,-1.406489,-0.8777388,-24.50906,16.06718,-17.46099,16.1295,0.8026159,-0.4985949,-13.43153,14.2232,0,0.004,7999,0,0,0,13.72268,13.24126,12.14344,13.42259,13.64058,14.02049,14.6431,14.74057,13.931,12.76007,"NAN","NAN",14.44019,-6.230567,-3.777565,-2.830829,-4.02205,0.3909316,37.02348,37.64739,37.61122,38.88391,37.15911,37.25179,38.06559,38.67595,37.56375,0.6599686,0.6886497,0.6869721,0.7471029,0.6661573,0.6704012,0.7081793,0.737122,0.684773,1.000178,14.39572,13.17973,372.2,379.6,373.3,-6.863,12.9
"2014-10-15 00:16:00",1368544,-1.355238,-0.9016212,-22.50949,16.0541,-17.18117,16.13278,0.8026159,-0.4985949,-11.75259,14.24942,0,0.004,7999,0,0,0,13.74886,13.20847,12.16967,13.41604,13.6411,14.02376,14.63635,14.74057,13.93083,12.75027,"NAN","NAN",14.4369,-6.254137,-3.78352,-2.83164,-4.022892,0.3906993,37.02347,37.65643,37.60896,38.86131,37.16589,37.25857,38.06785,38.66012,37.56601,0.6599688,0.6890693,0.6868672,0.7460156,0.6664674,0.6707121,0.7082856,0.7363648,0.6848776,1.000166,14.39572,13.19263,374.2,379.9,375.1,-5.266,12.95
"2014-10-15 00:17:00",1368545,-1.298293,-0.8956485,-23.48071,16.06719,-17.57292,16.1295,0.8026159,-0.4985949,-12.48013,14.27235,0,0.004,7999,0,0,0,13.64741,13.21175,12.16655,13.39967,13.64332,14.0174,14.64966,14.73384,13.92755,12.74374,"NAN","NAN",14.43692,-6.274219,-3.792035,-2.830001,-4.032259,0.3906993,37.02348,37.66321,37.61122,38.87262,37.16589,37.24501,38.06785,38.66238,37.56601,0.6599687,0.6893842,0.6869721,0.7465586,0.6664673,0.67009,0.7082856,0.7364728,0.6848777,1.000115,14.39572,13.19172,373.3,379.5,374.5,-5.409,12.87
"2014-10-15 00:18:00",1368546,-1.264128,-0.9255035,-24.45193,16.07374,-17.23713,16.13278,0.8026159,-0.4985949,-13.93521,14.27563,0,0.004,7999,0,0,0,13.58193,13.19864,12.16295,13.40949,13.63642,14.01721,14.64619,14.75116,13.92755,12.74374,"NAN","NAN",14.43692,-6.296938,-3.798856,-2.829187,-4.034821,0.3905444,37.02121,37.65417,37.618,38.86809,37.16137,37.24953,38.06785,38.66916,37.56827,0.6598656,0.6889644,0.6872866,0.746341,0.6662607,0.6702972,0.7082856,0.7367976,0.6849823,1.000178,14.39572,13.19909,372.3,379.9,373.1,-7.136,12.94
"2014-10-15 00:19:00",1368547,-1.241361,-0.9075986,-26.4515,16.05083,-17.34906,16.1295,0.7580262,-0.4985949,-15.78205,14.30185,0,0.004,7999,0,0,0,13.59176,13.21175,12.15671,13.40621,13.64625,14.01066,14.64619,14.75116,13.92755,12.74701,"NAN","NAN",14.43036,-6.312708,-3.809108,-2.830026,-4.041667,0.3906218,37.01896,37.65869,37.61348,38.86357,37.16363,37.23597,38.06559,38.65108,37.56375,0.6597629,0.6891742,0.6870768,0.7461236,0.666364,0.6696756,0.7081794,0.7359325,0.6847731,1.000178,14.39572,13.22487,370.2,379.7,371.4,-8.71,12.92
"2014-10-15 00:20:00",1368548,-1.25275,-0.9075986,-28.22255,16.0672,-17.68485,16.12622,0.5350773,-0.4154957,-16.78941,14.30513,0,0.004,7999,0,0,0,13.68341,13.22158,12.15001,13.42258,13.64174,14.01394,14.64658,14.74731,13.93756,12.74047,"NAN","NAN",14.45326,-6.334546,-3.81848,-2.830844,-4.049334,0.3909316,37.02348,37.64965,37.61348,38.87939,37.15911,37.24501,38.06559,38.67595,37.57053,0.6599686,0.6887546,0.6870769,0.7468855,0.6661572,0.67009,0.7081793,0.7371221,0.6850871,1.000153,14.39572,13.24144,368.5,379.4,370.4,-9.35,12.85
"2014-10-15 00:21:00",1368549,-1.286903,-0.9255025,-27.30846,16.09013,-17.46099,16.13605,0.5350773,-0.08309914,-16.00591,14.28547,0,0.004,7999,0,0,0,13.77177,13.20519,12.13346,13.43567,13.65659,14.03359,14.62999,14.74751,13.92755,12.75027,"NAN","NAN",14.45653,-6.342323,-3.826948,-2.830806,-4.051836,0.3908542,37.02121,37.65417,37.61574,38.88166,37.16137,37.24953,38.06785,38.66012,37.55696,0.6598657,0.6889644,0.6871818,0.7469938,0.6662605,0.6702972,0.7082856,0.7363647,0.6844592,1.000178,14.39572,13.22488,369.6,379.7,371.1,-8.97,12.9
"2014-10-15 00:22:00",1368550,-1.269808,-0.9135513,-26.22298,16.07046,-17.79678,16.1295,0.5350773,-0.08309914,-14.99854,14.27892,0,0.004,7999,0,0,0,13.86998,13.2183,12.12347,13.43567,13.62088,14.03687,14.62653,14.75097,13.92755,12.72412,"NAN","NAN",14.44673,-6.353635,-3.836293,-2.829969,-4.054365,0.3907767,37.00765,37.65869,37.60896,38.86809,37.15911,37.24727,38.07011,38.64882,37.57279,0.6592485,0.6891742,0.6868673,0.7463412,0.6661572,0.6701936,0.7083918,0.7358243,0.6851917,1.000127,14.39572,13.16783,370.5,379.3,372,-7.622,12.83
"2014-10-15 00:23:00",1368551,-1.258419,-0.9314641,-22.9094,16.07046,-17.34906,16.1295,0.5350773,0,-12.14434,14.27892,0,0.004,7999,0,0,0,13.74886,13.20191,12.13689,13.4324,13.64502,14.03359,14.63655,14.74404,13.92755,12.72739,"NAN","NAN",14.44999,-6.365002,-3.845672,-2.829975,-4.062891,0.3909316,37.01443,37.65417,37.61122,38.88166,37.14781,37.24501,38.06559,38.66012,37.56601,0.6595569,0.6889644,0.6869721,0.7469938,0.6656405,0.67009,0.7081793,0.7363647,0.6848777,1.000178,14.39572,13.19452,373.9,379.7,374.9,-5.186,12.92
"2014-10-15 00:24:00",1368552,-1.224268,-0.9075906,-19.88148,16.06392,-17.2931,16.11966,0.5350773,-0.2492974,-9.514001,14.2953,0,0.004,7999,0,0,0,13.60485,13.24126,12.14017,13.42258,13.65297,14.03031,14.63635,14.74423,13.931,12.7372,"NAN","NAN",14.43692,-6.37467,-3.853376,-2.82673,-4.065485,0.391009,37.02573,37.65643,37.62026,38.86809,37.16589,37.24953,38.06107,38.62395,37.56827,0.6600717,0.6890693,0.6873913,0.746341,0.6664673,0.6702972,0.7079669,0.7346368,0.6849822,1.000166,14.39572,13.18441,376.8,379.7,377.6,-2.459,12.92
"2014-10-15 00:25:00",1368553,-1.173019,-0.9075906,-19.13877,16.10982,-17.2931,16.14916,0.7134364,-0.04154957,-8.618566,14.32478,0,0.004,7999,0,0,0,13.59503,13.25438,12.1564,13.41276,13.64554,14.02376,14.64291,14.74751,13.93428,12.73721,"NAN","NAN",14.44018,-6.380784,-3.862747,-2.825912,-4.071449,0.3907767,37.01896,37.65869,37.61348,38.85453,37.16815,37.24953,38.06107,38.65334,37.56827,0.6597627,0.6891744,0.6870768,0.7456889,0.6665707,0.6702976,0.7079669,0.7360406,0.6849823,1.000166,14.39572,13.2111,377.8,379.9,378.7,-1.515,12.95
"2014-10-15 00:26:00",1368554,-1.155949,-0.9255139,-18.85312,16.1295,-17.40503,16.19506,0.6688466,0,-8.394707,14.34117,0,0.004,7999,0,0,0,13.54266,13.21831,12.1628,13.40621,13.64554,14.02049,14.65313,14.75116,13.92755,12.73721,"NAN","NAN",14.43364,-6.392234,-3.871324,-2.822682,-4.076621,0.3909316,37.01443,37.66321,37.61348,38.87262,37.15232,37.26762,38.07238,38.66464,37.56149,0.6595569,0.6893843,0.6870768,0.7465586,0.6658471,0.6711269,0.7084981,0.7365809,0.6846684,1.000204,14.39572,13.22951,378.2,380,379,-1.309,12.97
"2014-10-15 00:27:00",1368555,-1.121796,-0.9255242,-19.19591,16.16227,-17.62889,16.20818,0.6242569,0,-8.450671,14.35755,0,0.004,7999,0,0,0,13.50666,13.21175,12.15968,13.42585,13.64192,14.02376,14.63636,14.76156,13.92755,12.72723,"NAN","NAN",14.44019,-6.40451,-3.881576,-2.828428,-4.083467,0.3909316,37.01669,37.63835,37.60896,38.8794,37.15685,37.25857,38.07011,38.6669,37.56375,0.6596598,0.6882302,0.6868672,0.746885,0.6660538,0.6707126,0.7083919,0.7366895,0.684773,1.000166,14.39572,13.19363,378.1,379.9,379,-1.09,12.95
"2014-10-15 00:28:00",1368556,-1.121796,-0.9076108,-18.85312,16.17865,-17.06924,16.20818,0.7580262,0,-8.394707,14.3805,0,0.004,7999,0,0,0,13.53284,13.22159,12.16623,13.40949,13.63607,14.02049,14.63963,14.75463,13.92755,12.73394,"NAN","NAN",14.44019,-6.416757,-3.890106,-2.823528,-4.086886,0.3906218,37.01896,37.65191,37.61574,38.87714,37.16363,37.24501,38.06107,38.64882,37.56375,0.6597627,0.6888595,0.6871817,0.7467766,0.666364,0.67009,0.7079669,0.7358244,0.684773,1.000191,14.39572,13.18258,378.5,380.4,379.2,-1.488,13.05
"2014-10-15 00:29:00",1368557,-1.099036,-0.9195678,-19.19591,16.20161,-17.57292,16.22128,0.6688466,0,-8.562601,14.38706,0,0.004,7999,0,0,0,13.68668,13.26076,12.1628,13.40622,13.63193,14.02376,14.63964,14.73384,13.92755,12.74048,"NAN","NAN",14.44346,-6.430819,-3.899531,-2.82193,-4.094608,0.3906218,37.02574,37.66547,37.61122,38.86809,37.15911,37.24727,38.06785,38.6556,37.56375,0.6600716,0.6894892,0.6869721,0.746341,0.6661572,0.6701937,0.7082856,0.7361485,0.684773,1.000166,14.39572,13.22032,378.3,380,379,-1.154,12.97
"2014-10-15 00:30:00",1368558,-1.099036,-0.9255391,-19.19591,16.18521,-17.57292,16.23112,0.5350773,0,-8.954353,14.3805,0,0.004,7999,0,0,0,13.91581,13.28061,12.15592,13.41931,13.64315,14.03031,14.63963,14.73038,13.92755,12.72739,"NAN","NAN",14.45,-6.441301,-3.909754,-2.824384,-4.100572,0.3908542,37.01896,37.66321,37.61122,38.86357,37.16363,37.24953,38.07238,38.6669,37.57053,0.6597627,0.6893846,0.686972,0.7461238,0.666364,0.6702972,0.708498,0.7366892,0.6850869,1.000178,14.39572,13.18259,378.2,380.1,378.6,-1.63,12.98
"2014-10-15 00:31:00",1368559,-1.093335,-0.9135913,-20.22426,16.19833,-17.79678,16.25079,0.6242569,0,-9.178212,14.39362,0,0.004,7999,0,0,0,13.89289,13.30027,12.16623,13.40949,13.64262,14.02049,14.63635,14.73018,13.92755,12.72085,"NAN","NAN",14.44347,-6.446492,-3.920799,-2.823544,-4.1048,0.3909316,37.02348,37.64061,37.61122,38.87262,37.15911,37.24275,38.06107,38.66012,37.56149,0.6599686,0.688335,0.6869721,0.7465586,0.6661574,0.6699865,0.7079669,0.7363647,0.6846684,1.000178,14.39572,13.20192,377.2,380,378.5,-1.673,12.96
"2014-10-15 00:32:00",1368560,-1.093329,-0.9076149,-19.13878,16.20818,-17.46099,16.27702,0.6688466,0,-9.066283,14.40345,0,0.004,7999,0,0,0,13.83396,13.2806,12.17638,13.42585,13.64262,14.02704,14.63963,14.73384,13.92755,12.71758,"NAN","NAN",14.44018,-6.4421,-3.9276,-2.825169,-4.112452,0.3908542,37.01896,37.65417,37.61122,38.87262,37.16137,37.24727,38.05881,38.6669,37.55923,0.6597629,0.6889644,0.6869721,0.7465586,0.6662605,0.6701936,0.7078607,0.7366891,0.6845638,1.000216,14.39572,13.16327,378.4,380.4,378.6,-1.994,13.05
"2014-10-15 00:33:00",1368561,-1.087634,-0.8837302,-19.31017,16.18849,-17.46099,16.22456,0.6242569,0,-9.122248,14.43623,0,0.004,7999,0,0,0,13.97472,13.31665,12.16623,13.41276,13.6397,14.02376,14.6433,14.73712,13.92755,12.72068,"NAN","NAN",14.44347,-6.441229,-3.93527,-2.822716,-4.118418,0.3908542,37.02121,37.66321,37.61348,38.87487,37.16589,37.24953,38.06785,38.66916,37.56375,0.6598656,0.6893844,0.6870769,0.7466674,0.6664673,0.6702972,0.7082856,0.7367977,0.684773,1.000166,14.39572,13.16327,378.1,380.1,378.7,-1.603,12.99
"2014-10-15 00:34:00",1368562,-1.093332,-0.9135883,-19.76721,16.17865,-17.62889,16.21145,0.7580262,0,-9.234178,14.42967,0,0.004,7999,0,0,0,14.07293,13.31011,12.16951,13.40949,13.63175,14.02376,14.64291,14.74423,13.92755,12.72085,"NAN","NAN",14.44673,-6.434254,-3.942946,-2.825176,-4.12439,0.3907767,37.028,37.65643,37.618,38.86357,37.15685,37.24501,38.06107,38.66238,37.56149,0.6601745,0.6890693,0.6872864,0.7461239,0.6660539,0.67009,0.7079669,0.7364728,0.6846684,1.000166,14.39572,13.17524,377.6,379.9,378.6,-1.486,12.95
"2014-10-15 00:35:00",1368563,-1.099026,-0.9135883,-20.50991,16.2049,-17.57292,16.25407,0.5350773,0,-9.793824,14.43951,0,0.004,7999,0,0,0,14.09912,13.29699,12.16623,13.42586,13.63555,14.02704,14.63982,14.74077,13.92755,12.71086,"NAN","NAN",14.44347,-6.429014,-3.952317,-2.821904,-4.129502,0.3907767,37.01896,37.66095,37.61122,38.87714,37.15911,37.24953,38.06559,38.64882,37.55696,0.6597627,0.6892793,0.6869721,0.7467762,0.6661573,0.6702973,0.7081793,0.7358248,0.6844592,1.000229,14.39572,13.20009,377,380.2,378.1,-2.289,13
"2014-10-15 00:36:00",1368564,-1.099027,-0.937474,-22.10957,16.22456,-17.85274,16.29012,0.6688466,0,-11.08101,14.43623,0,0.004,7999,0,0,0,14.19749,13.26732,12.16967,13.41604,13.63193,14.03031,14.62653,14.7373,13.92755,12.7143,"NAN","NAN",14.44347,-6.418541,-3.961696,-2.823545,-4.13462,0.3907767,37.02121,37.65417,37.60896,38.86131,37.15911,37.24501,38.06785,38.66464,37.55696,0.6598656,0.6889644,0.6868673,0.7460151,0.6661572,0.67009,0.7082856,0.7365813,0.6844592,1.000178,14.39572,13.17156,375.5,380.1,376.8,-3.488,12.99
"2014-10-15 00:37:00",1368565,-1.150279,-0.9255328,-24.33767,16.27374,-17.74081,16.32618,0.7134364,0,-13.15171,14.43623,0,0.004,7999,0,0,0,14.15804,13.22141,12.16607,13.42258,13.62486,14.03031,14.63635,14.7373,13.92755,12.71103,"NAN","NAN",14.44347,-6.408937,-3.970219,-2.822729,-4.143143,0.3909316,37.01443,37.66321,37.61122,38.87713,37.15459,37.24953,38.07011,38.6669,37.56149,0.6595569,0.6893842,0.686972,0.7467764,0.6659505,0.6702972,0.708392,0.7366894,0.6846684,1.000191,14.39572,13.19733,373.5,380.4,374.7,-5.933,13.05
"2014-10-15 00:38:00",1368566,-1.167362,-0.9374751,-26.90855,16.29995,-18.13257,16.36549,0.7134364,0,-15.33433,14.41001,0,0.004,7999,0,0,0,14.16132,13.20847,12.1628,13.41277,13.61451,14.02049,14.63982,14.72691,13.92755,12.73066,"NAN","NAN",14.44347,-6.397566,-3.977025,-2.824358,-4.147393,0.3909316,37.01896,37.66095,37.61574,38.88166,37.16589,37.25179,38.06333,38.65108,37.57053,0.6597627,0.6892793,0.6871817,0.746994,0.6664673,0.6704012,0.7080731,0.7359324,0.6850869,1.000178,14.39986,13.20009,371.1,380.3,372.4,-8.09,13.01
"2014-10-15 00:39:00",1368567,-1.218595,-0.9613461,-28.56534,16.29668,-18.2445,16.36549,0.7134364,0,-16.84538,14.39362,0,0.004,7999,0,0,0,14.25951,13.20191,12.15264,13.40949,13.63175,14.01394,14.64985,14.73038,13.92755,12.72085,"NAN","NAN",14.44019,-6.387009,-3.982941,-2.821871,-4.155012,0.3909316,37.03704,37.65643,37.6067,38.87487,37.17493,37.25857,38.06333,38.67595,37.56601,0.6605866,0.6890693,0.6867624,0.7466673,0.6668811,0.6707123,0.7080731,0.7371225,0.6848776,1.000204,14.41643,13.16144,369.4,380.1,370.8,-9.6,12.99
"2014-10-15 00:40:00",1368568,-1.229983,-0.9314907,-28.50821,16.24751,-18.13257,16.31308,0.6688466,0,-17.01327,14.35756,0,0.004,7999,0,0,0,14.11221,13.2183,12.15936,13.4095,13.63503,14.03031,14.63963,14.73038,13.93083,12.71758,"NAN","NAN",14.45326,-6.373907,-3.991461,-2.821871,-4.159272,0.3909316,37.03478,37.65869,37.6067,38.86583,37.16363,37.24953,38.06333,38.67142,37.56375,0.6604834,0.6891742,0.6867625,0.7462323,0.666364,0.6702973,0.7080733,0.7369058,0.684773,1.000229,14.42057,13.16697,369.2,380,370.4,-9.83,12.96
"2014-10-15 00:41:00",1368569,-1.229985,-0.9076076,-27.25133,16.18521,-18.02064,16.26063,0.6688466,0,-16.22977,14.32806,0,0.004,7999,0,0,0,13.9158,13.24782,12.14968,13.40294,13.62644,14.01721,14.64948,14.72691,13.93083,12.72085,"NAN","NAN",14.44347,-6.359943,-3.993173,-2.821877,-4.165244,0.3907767,37.02348,37.65643,37.60896,38.86809,37.17041,37.25179,38.06333,38.65786,37.56827,0.6599686,0.6890694,0.6868672,0.7463413,0.6666741,0.6704009,0.7080731,0.736257,0.6849822,1.000191,14.42057,13.17893,370.1,379.8,371.1,-9.05,12.93
"2014-10-15 00:42:00",1368570,-1.258459,-0.9255223,-26.79428,16.1295,-17.51695,16.20818,0.7134364,0,-15.78205,14.32478,0,0.004,7999,0,0,0,13.86016,13.25438,12.15248,13.39639,13.63935,14.01394,14.64619,14.73712,13.92755,12.71758,"NAN","NAN",14.44019,-6.35034,-4.002548,-2.822697,-4.175471,0.3903895,37.01669,37.65643,37.61122,38.87035,37.16363,37.24727,38.05881,38.65786,37.56375,0.6596598,0.6890693,0.686972,0.7464499,0.666364,0.6701936,0.7078606,0.7362573,0.6847731,1.000216,14.42057,13.19089,370.3,380,371.5,-8.85,12.97
"2014-10-15 00:43:00",1368571,-1.309708,-0.9434357,-28.05116,16.13933,-17.68485,16.20818,0.5350773,0,-16.3417,14.30841,0,0.004,7999,0,0,0,13.86998,13.18862,12.15608,13.40294,13.63262,14.02049,14.64966,14.73384,13.92755,12.72413,"NAN","NAN",14.44019,-6.340721,-4.006801,-2.821874,-4.178872,0.3904669,37.02348,37.65417,37.61122,38.87713,37.16589,37.25406,38.07238,38.68273,37.56149,0.6599687,0.6889644,0.686972,0.7467762,0.6664673,0.6705046,0.7084982,0.7374468,0.6846684,1.000229,14.42057,13.19918,369.1,379.8,370.8,-9.36,12.93
"2014-10-15 00:44:00",1368572,-1.360943,-0.9314835,-29.4223,16.13605,-18.02064,16.20818,0.6688466,0,-17.34906,14.27892,0,0.004,7999,0,0,0,13.80123,13.21502,12.13954,13.39967,13.63262,14.02049,14.64966,14.73038,13.92755,12.70759,"NAN","NAN",14.44672,-6.333677,-4.012729,-2.823485,-4.186502,0.3900797,37.02121,37.65869,37.6067,38.87487,37.17041,37.24501,38.06333,38.6782,37.55471,0.6598656,0.6891742,0.6867626,0.7466677,0.6666742,0.67009,0.7080731,0.7372301,0.6843545,1.000191,14.42057,13.18261,367.7,379.5,369.7,-10.25,12.87
"2014-10-15 00:45:00",1368573,-1.395109,-0.9255125,-30.7363,16.1426,-18.13257,16.20818,0.7580262,0,-18.35642,14.25925,0,0.004,7999,0,0,0,13.83724,13.21502,12.13314,13.39967,13.64969,14.02049,14.63635,14.73402,13.92755,12.70072,"NAN","NAN",14.44347,-6.32931,-4.015285,-2.822667,-4.192465,0.3900023,37.02574,37.65191,37.60896,38.86131,37.15911,37.25179,38.06333,38.66464,37.56149,0.6600717,0.6888595,0.6868672,0.746015,0.6661572,0.6704009,0.7080731,0.736581,0.6846685,1.000166,14.42057,13.16789,366.4,379.4,368.6,-11.3,12.85